Location: *
(40.9167°N, 9.5000°E)
Time: 08:37:46
(UTC+00:00)

Cosmos 1954 Rocket - Pass Details

Date: 09 April 2020
Orbit: 752 x 781 km, 74.1° (Epoch: 03 June)

Event Time Altitude Azimuth Distance (km) Brightness Sun altitude
Rises 19:26:05 0° 197° (SSW) 3,228 7.1 -16.9°
Reaches altitude 10° 19:28:27 10° 198° (SSW) 2,301 6.4 -17.3°
Maximum altitude 19:33:41 90° 310° (NW) 769 3.9 -18.2°
Drops below altitude 10° 19:38:55 10° 19° (NNE) 2,298 6.6 -19.0°
Sets 19:41:17 0° 20° (NNE) 3,223 7.4 -19.4°
